Weather History for Jacksonville, NC

Change the Weather History Date:

Wednesday, January 29, 2014

  Actual Average Record
Temperature  
Mean Temperature 20 °F -  
Max Temperature 24 °F 52 °F 75 °F (2002)
Min Temperature 15 °F 31 °F 15 °F (2000)
Degree Days  
Heating Degree Days 46    
Moisture  
Dew Point 12 °F    
Average Humidity 72    
Maximum Humidity 86    
Minimum Humidity 54    
Precipitation  
Precipitation 0.24 in - - ()
Sea Level Pressure  
Sea Level Pressure 30.27 in    
Wind  
Wind Speed 0 mph (North)    
Max Wind Speed 0 mph    
Max Gust Speed -    
Visibility 8 miles    
Events      
Averages and records for this station are not official NWS values.
T = Trace of Precipitation, MM = Missing Value Source: NWS Daily Summary

Daily Weather History Graph

Daily Weather History Graph

Search for Another Location

Airport:

Trip Planner

Search our weather history database for the weather conditions in past years. The results will help you decide how hot, cold, wet, or windy it might be!

Date:

Astronomy

Jan. 29, 2014 Rise Set
Actual Time 7:11 AM EST 5:36 PM EST
Civil Twilight 6:44 AM EST 6:03 PM EST
Nautical Twilight 6:14 AM EST 6:33 PM EST
Astronomical Twilight 5:44 AM EST 7:03 PM EST
Moon 5:45 AM EST (1/29) 4:33 PM EST (1/29)
Length of Visible Light 11h 18m
Length of Day
10h 25m
Waning Crescent, 2% of the Moon is Illuminated
Jan 29
Waning Crescent
Jan 30
New
Feb 6
First Quarter
Feb 14
Full
Feb 22
Last Quarter

Hourly Weather History & Observations

Time (EST) Temp. Dew Point Humidity Pressure Visibility Wind Dir Wind Speed Gust Speed Precip Events Conditions
12:15 AM 19.4 °F 15.8 °F 86% 30.15 in 2.5 mi Calm Calm - 0.02 in   Overcast
12:35 AM 19.4 °F 15.8 °F 86% 30.14 in 2.5 mi Calm Calm - 0.04 in   Scattered Clouds
12:55 AM 19.4 °F 15.8 °F 86% 30.14 in 1.5 mi Calm Calm - 0.06 in   Mostly Cloudy
1:15 AM 19.4 °F 14.0 °F 80% 30.15 in 4.0 mi Calm Calm - 0.02 in   Scattered Clouds
1:35 AM 19.4 °F 14.0 °F 80% 30.13 in 5.0 mi Calm Calm - 0.05 in   Mostly Cloudy
1:55 AM 19.4 °F 15.8 °F 86% 30.14 in 4.0 mi Calm Calm - 0.07 in   Mostly Cloudy
2:15 AM 19.4 °F 14.0 °F 80% 30.14 in 5.0 mi Calm Calm - 0.02 in   Mostly Cloudy
2:35 AM 19.4 °F 12.2 °F 74% 30.13 in 5.0 mi Calm Calm - 0.03 in   Mostly Cloudy
2:55 AM 19.4 °F 14.0 °F 80% 30.13 in 3.0 mi Calm Calm - 0.03 in   Partly Cloudy
3:15 AM 17.6 °F 12.2 °F 79% 30.13 in 5.0 mi Calm Calm - 0.01 in   Partly Cloudy
3:35 AM 17.6 °F 14.0 °F 86% 30.15 in 4.0 mi Calm Calm - 0.01 in   Scattered Clouds
3:55 AM 17.6 °F 12.2 °F 79% 30.15 in 7.0 mi Calm Calm - 0.02 in   Mostly Cloudy
4:15 AM 17.6 °F 12.2 °F 79% 30.15 in 4.0 mi Calm Calm - 0.01 in   Overcast
4:35 AM 17.6 °F 12.2 °F 79% 30.15 in 1.2 mi Calm Calm - 0.01 in   Overcast
4:55 AM 17.6 °F 12.2 °F 79% 30.15 in 3.0 mi Calm Calm - 0.01 in   Overcast
5:15 AM 17.6 °F 12.2 °F 79% 30.15 in 1.0 mi Calm Calm - N/A   Overcast
5:35 AM 17.6 °F 12.2 °F 79% 30.18 in 1.2 mi Calm Calm - N/A   Overcast
5:55 AM 17.6 °F 12.2 °F 79% 30.17 in 1.5 mi Calm Calm - N/A   Overcast
6:15 AM 17.6 °F 12.2 °F 79% 30.21 in 4.0 mi Calm Calm - N/A   Mostly Cloudy
6:35 AM 17.6 °F 10.4 °F 73% 30.21 in 9.0 mi Calm Calm - N/A   Partly Cloudy
6:55 AM 17.6 °F 12.2 °F 79% 30.19 in 10.0 mi Calm Calm - 0.01 in   Scattered Clouds
7:15 AM 17.6 °F 12.2 °F 79% 30.24 in 10.0 mi Calm Calm - 0.01 in   Scattered Clouds
7:35 AM 17.6 °F 12.2 °F 79% 30.23 in 9.0 mi Calm Calm - 0.01 in   Scattered Clouds
7:55 AM 17.6 °F 12.2 °F 79% 30.23 in 10.0 mi Calm Calm - 0.01 in   Mostly Cloudy
8:15 AM 17.6 °F 12.2 °F 79% 30.24 in 10.0 mi Calm Calm - N/A   Mostly Cloudy
8:35 AM 17.6 °F 12.2 °F 79% 30.25 in 10.0 mi Calm Calm - N/A   Clear
8:55 AM 17.6 °F 12.2 °F 79% 30.26 in 10.0 mi Calm Calm - N/A   Clear
9:15 AM 19.4 °F 12.2 °F 74% 30.28 in 10.0 mi Calm Calm - N/A   Clear
9:35 AM 19.4 °F 12.2 °F 74% 30.29 in 10.0 mi Calm Calm - N/A   Clear
9:55 AM 19.4 °F 12.2 °F 74% 30.30 in 10.0 mi Calm Calm - N/A   Clear
10:15 AM 19.4 °F 12.2 °F 74% 30.30 in 10.0 mi Calm Calm - N/A   Clear
10:35 AM 19.4 °F 12.2 °F 74% 30.31 in 10.0 mi Calm Calm - N/A   Partly Cloudy
10:55 AM 19.4 °F 12.2 °F 74% 30.32 in 10.0 mi Calm Calm - N/A   Partly Cloudy
11:15 AM 21.2 °F 14.0 °F 74% 30.32 in 10.0 mi Calm Calm - N/A   Clear
11:35 AM 21.2 °F 12.2 °F 68% 30.31 in 10.0 mi Calm Calm - N/A   Partly Cloudy
11:55 AM 21.2 °F 14.0 °F 74% 30.30 in 10.0 mi Calm Calm - N/A   Partly Cloudy
12:15 PM 23.0 °F 12.2 °F 63% 30.31 in 10.0 mi Calm Calm - N/A   Clear
12:35 PM 23.0 °F 14.0 °F 68% 30.31 in 10.0 mi Calm Calm - 0.01 in   Clear
12:55 PM 23.0 °F 12.2 °F 63% 30.30 in 10.0 mi Calm Calm - 0.01 in   Clear
1:15 PM 23.0 °F 10.4 °F 59% 30.30 in 10.0 mi Calm Calm - N/A   Clear
1:35 PM 24.8 °F 14.0 °F 64% 30.30 in 10.0 mi Calm Calm - N/A   Clear
1:55 PM 24.8 °F 10.4 °F 54% 30.31 in 10.0 mi Calm Calm - N/A   Clear
2:15 PM 24.8 °F 12.2 °F 59% 30.32 in 10.0 mi Calm Calm - N/A   Clear
2:35 PM 24.8 °F 12.2 °F 59% 30.30 in 10.0 mi Calm Calm - N/A   Clear
2:55 PM 24.8 °F 10.4 °F 54% 30.30 in 10.0 mi Calm Calm - N/A   Clear
3:15 PM 24.8 °F 12.2 °F 59% 30.30 in 10.0 mi Calm Calm - N/A   Clear
3:35 PM 24.8 °F 12.2 °F 59% 30.31 in 10.0 mi Calm Calm - N/A   Clear
3:55 PM 24.8 °F 10.4 °F 54% 30.31 in 10.0 mi Calm Calm - N/A   Clear
4:15 PM 24.8 °F 12.2 °F 59% 30.33 in 10.0 mi Calm Calm - N/A   Clear
4:35 PM 24.8 °F 12.2 °F 59% 30.33 in 10.0 mi Calm Calm - N/A   Clear
4:55 PM 24.8 °F 12.2 °F 59% 30.32 in 10.0 mi Calm Calm - N/A   Clear
5:15 PM 24.8 °F 12.2 °F 59% 30.31 in 10.0 mi Calm Calm - N/A   Clear
5:35 PM 23.0 °F 12.2 °F 63% 30.32 in 10.0 mi Calm Calm - N/A   Clear
5:55 PM 23.0 °F 10.4 °F 59% 30.33 in 10.0 mi Calm Calm - N/A   Clear
6:15 PM 23.0 °F 10.4 °F 59% 30.34 in 10.0 mi Calm Calm - N/A   Clear
6:35 PM 23.0 °F 10.4 °F 59% 30.35 in 10.0 mi Calm Calm - N/A   Clear
6:55 PM 23.0 °F 12.2 °F 63% 30.35 in 10.0 mi Calm Calm - N/A   Clear
7:15 PM 21.2 °F 12.2 °F 68% 30.36 in 10.0 mi Calm Calm - N/A   Clear
7:35 PM 21.2 °F 12.2 °F 68% 30.36 in 10.0 mi Calm Calm - 0.01 in   Clear
7:55 PM 21.2 °F 12.2 °F 68% 30.36 in 10.0 mi Calm Calm - 0.01 in   Clear
8:15 PM 21.2 °F 14.0 °F 74% 30.36 in 10.0 mi Calm Calm - N/A   Clear
8:35 PM 21.2 °F 12.2 °F 68% 30.36 in 10.0 mi Calm Calm - 0.01 in   Clear
8:55 PM 19.4 °F 12.2 °F 74% 30.36 in 10.0 mi Calm Calm - 0.01 in   Clear
9:15 PM 19.4 °F 14.0 °F 80% 30.38 in 10.0 mi Calm Calm - N/A   Clear
9:35 PM 19.4 °F 12.2 °F 74% 30.38 in 10.0 mi Calm Calm - N/A   Clear
9:55 PM 17.6 °F 12.2 °F 79% 30.38 in 10.0 mi Calm Calm - N/A   Clear
10:15 PM 17.6 °F 12.2 °F 79% 30.39 in 10.0 mi Calm Calm - N/A   Clear
10:35 PM 15.8 °F 10.4 °F 79% 30.39 in 10.0 mi Calm Calm - N/A   Clear
10:55 PM 15.8 °F 12.2 °F 86% 30.38 in 10.0 mi Calm Calm - N/A   Clear
11:15 PM 15.8 °F 10.4 °F 79% 30.38 in 10.0 mi Calm Calm - N/A   Clear
11:35 PM 15.8 °F 10.4 °F 79% 30.38 in 10.0 mi Calm Calm - N/A   Clear
11:55 PM 15.8 °F 10.4 °F 79% 30.38 in 10.0 mi Calm Calm - N/A   Clear